ISS DEB

Last updated on Thu Jun 27 2024 00:02:06 GMT+0000 (Coordinated Universal Time)

1 58229U 98067WC 24178.61213291 .10347056 12580-4 37573-3 0 9997 2 58229 51.6071 235.9974 0006009 315.3037 44.7506 16.43977649 37220

Satellite not in orbit